Regional Weather Roundup
Issued by NWS

Home | Current Version | Previous Version | Text Only | Print | Product List | Glossary On
Versions: 1 2 3 4 5 6 7 8 9 10 11 12 13 14 15 16 17 18 19 20 21 22 23 24 25 26 27 28 29 30 31 32 33 34 35 36 37 38 39 40 41 42 43 44 45 46 47 48 49 50
000
ASUS43 KLMK 062010
RWRKY
KENTUCKY REGIONAL WEATHER ROUNDUP
NATIONAL WEATHER SERVICE LOUISVILLE KY
300 PM EST TUE DEC 06 2016

NOTE "FAIR" INDICATES FEW OR NO CLOUDS BELOW 12,000 FEET
WITH NO SIGNIFICANT WEATHER AND/OR OBSTRUCTIONS TO VISIBILITY.

KYZ001>023-026-027-061>063-070>075-062100-
WESTERN AND SOUTH CENTRAL KENTUCKY

CITY           SKY/WX    TMP DP  RH WIND       PRES   REMARKS
PADUCAH        CLOUDY    46  37  71 NW12      29.88R
HENDERSON      CLOUDY    43  37  81 W17G25    29.86R
OWENSBORO      CLOUDY    44  41  89 NW15G23   29.84R FOG
HOPKINSVILLE   NOT AVBL
BOWLING GREEN  CLOUDY    47  44  90 NW12G17   29.81R FOG
GLASGOW        CLOUDY    46  46 100 W8G16     29.78R
$$

KYZ024-025-028>034-038-045-046-053-062100-
NORTH CENTRAL KENTUCKY

CITY           SKY/WX    TMP DP  RH WIND       PRES   REMARKS
LOUISVILLE/SDF CLOUDY    46  41  82 NW14G22   29.75R
LOUISVILLE/LOU CLOUDY    45  41  86 NW12      29.76R
FORT KNOX      NOT AVBL
$$

KYZ035>037-039>044-047>052-055>060-089>105-062100-
NORTHEAST KENTUCKY

CITY           SKY/WX    TMP DP  RH WIND       PRES   REMARKS
LEXINGTON      CLOUDY    47  44  90 W10       29.70R
COVINGTON      CLOUDY    43  42  97 W13       29.70R
FRANKFORT      CLOUDY    46  42  86 NW9       29.71R
$$

KYZ054-064>069-076>088-106>120-062100-
SOUTHEAST KENTUCKY

CITY           SKY/WX    TMP DP  RH WIND       PRES   REMARKS
JACKSON        FOG       52  51  97 SW5       29.67R VSB 1
LONDON         LGT RAIN  51  50  96 SW7       29.70R FOG
SOMERSET       DRIZZLE   52  52 100 W8        29.71R
MIDDLESBORO    DRIZZLE   50  50  99 CALM      29.72R
MONTICELLO     LGT RAIN  55  54  94 W14G20    29.72R FOG
$$





USA.gov is the U.S. government's official web portal to all federal, state and local government web resources and services.